Location: Croisilles
(50.1998°N, 2.8793°E)
Time: 12:38:35
(UTC+00:00)

CZ-2D R/B - Pass Details

Date: 21 January 2021
Orbit: 520 x 538 km, 97.4° (Epoch: 26 February)

Event Time Altitude Azimuth Distance (km) Brightness Sun altitude
Rises 18:15:00 0° 177° (S) 2,673 6.9 -17.4°
Reaches altitude 10° 18:17:08 10° 183° (S) 1,785 6.1 -17.7°
Maximum altitude 18:20:55 52° 260° (W) 669 4.1 -18.3°
Drops below altitude 10° 18:24:42 10° 338° (NNW) 1,790 6.1 -18.9°
Sets 18:26:51 0° 343° (NNW) 2,682 6.9 -19.3°
